Commit Graph
100 Commits
Author SHA1 Message Date
Chris Danford 882406afe8 add spherical environment mapping 2004-01-06 19:54:13 +00:00
Chris Danford 7b67445a54 fix VC6 project and compile error 2004-01-06 03:52:41 +00:00
Chris Danford b743e3e43b Fix mem card sometimes mounted as read-only 2004-01-04 14:12:35 +00:00
Chris Danford 523327b932 fix VC6 project 2004-01-04 03:20:38 +00:00
Chris Danford 970fc9a15d no message 2004-01-03 23:22:36 +00:00
Chris Danford d4fd7adb1d fix merciful mines 2004-01-03 21:55:40 +00:00
Chris Danford 97c5c0e2c1 add MercifulMines option 2004-01-03 21:44:14 +00:00
Chris Danford 88ad647255 shrink mine judge window 2004-01-03 21:30:45 +00:00
Chris Danford 09ad8f31f3 use CachedThemeMetrics 2004-01-03 21:30:20 +00:00
Chris Danford a10afba6f9 fix incorrect credits text coming out of operator menu 2004-01-03 21:02:46 +00:00
Chris Danford 32bafded2e fix wrong credits message during demonstration 2004-01-03 20:34:35 +00:00
Chris Danford 93808b1a0d reload credits fonts on F2 2004-01-03 20:34:16 +00:00
Chris Danford 7e931de880 more credits text cleanup 2004-01-03 20:14:09 +00:00
Chris Danford ad16ea6827 fix back and out transitions can play at the same time 2004-01-03 20:13:51 +00:00
Chris Danford 5710c1bc43 fix uninitialized flag causing wrong credits message 2004-01-03 03:58:37 +00:00
Chris Danford 97146abaaf clean up memory card logic 2004-01-03 03:42:40 +00:00
Chris Danford 0416afda43 fix doubles+quick
fix grading (for real this time)
2004-01-02 22:19:27 +00:00
Chris Danford ecb14ad0c1 fix grading 2004-01-02 21:11:38 +00:00
Chris Danford ba9cef947e fix double+stomp 2004-01-02 21:02:06 +00:00
Chris Danford da466fc20c add NoHands option 2004-01-02 11:25:21 +00:00
Chris Danford 40b2ecfee5 simplify mine scoring
add separate dance point weights for mines
2004-01-02 08:43:14 +00:00
Chris Danford a9985795a4 make AddMines deterministic 2004-01-02 04:08:25 +00:00
Chris Danford 4640fb10ad move percent score and and grading constants to prefs 2004-01-02 01:39:14 +00:00
Chris Danford 8e7707f16c fix massive frame rate drop when using boomerang (versus, Queen of Light, 3x, boomerang) 2004-01-01 21:14:18 +00:00
Chris Danford 7ac7de95fc fix "planted and twister overwrite mines" 2004-01-01 11:09:59 +00:00
Chris Danford ecbdda070c fix "echo overwrites mines" 2004-01-01 11:07:41 +00:00
Chris Danford fd3425f9d1 don't pass input to Player unless human controlled 2004-01-01 04:11:18 +00:00
Chris Danford b0f277b696 don't show keyblocks for non-human players 2004-01-01 04:06:37 +00:00
Chris Danford 70f9216c87 Don't draw hold above receptors if being held. Fixes hold notes flying through receptor if holding during a stop. 2004-01-01 02:14:01 +00:00
Chris Danford 7fa80e5530 change hold explosion format 2004-01-01 01:53:25 +00:00
Chris Danford a0be7a2d72 tweak tipsy 2004-01-01 00:03:40 +00:00
Chris Danford d338fcaa82 fix hold body and cap misalignment in reverse and FlipHeadAndTailWhenReverse=1 2004-01-01 00:03:14 +00:00
Chris Danford 6d88de983d fix hold body and cap misalignment in reverse and FlipHeadAndTailWhenReverse=1 2003-12-31 23:47:01 +00:00
Chris Danford 6417d47583 never leave the title screen when coin mode = pay 2003-12-31 22:41:07 +00:00
Chris Danford 0da0ef785f move ScreenOptions frame animation to a metric 2003-12-31 22:32:46 +00:00
Chris Danford 64b5d82efd add fonts: ScreenGameplay player options, ScreenGameplay song options 2003-12-31 22:03:47 +00:00
Chris Danford 4cf6e96f6b support different explosion graphics per TapNoteScore 2003-12-31 21:40:38 +00:00
Chris Danford 37ebb054d7 account for lead-out in song progress meter 2003-12-31 10:32:52 +00:00
Chris Danford 7dd057d636 reload NoteSkins on F2 2003-12-31 10:30:31 +00:00
Chris Danford db424929c5 add BPM to player options screen 2003-12-31 08:45:05 +00:00
Chris Danford c58101953f per-element lighting flag for NoteSkins 2003-12-31 08:15:34 +00:00
Chris Danford 65df309d32 add collapse left transform 2003-12-31 07:49:30 +00:00
Chris Danford 141ba141d0 fix noteskin error if current game doesn't have a NoteSkin called "note" 2003-12-31 07:44:53 +00:00
Chris Danford ddbc750a49 faster ranking song score scroll speed 2003-12-31 07:20:05 +00:00
Chris Danford b72e9d7c89 change tween state size assert to debug_assert 2003-12-31 03:43:45 +00:00
Chris Danford f05ce5eaed change NoteSkin lighting 2003-12-31 03:42:59 +00:00
Chris Danford ef6987e3d2 no message 2003-12-29 03:52:45 +00:00
Chris Danford 4b3af8bd5c add note color support for Tap Addition 2003-12-29 03:51:15 +00:00
Chris Danford 5aa2a3dff4 add AttractSoundFrequency option
remove AttractSound and DemonstrationSound options
2003-12-28 19:46:50 +00:00
Chris Danford 625b25b050 update makefile/project file 2003-12-28 08:25:58 +00:00
Chris Danford 2380638072 cleanup ScreenRanking
generalize scrolling lists with ListDisplay
2003-12-28 08:20:48 +00:00
Chris Danford 230a20a37d fix "don't save high scores if failed" 2003-12-25 07:27:23 +00:00
Chris Danford 3919b2fc43 add FAQ item about CoinMode 2003-12-25 07:18:41 +00:00
Chris Danford 1ad4a83050 add song position meter to gameplay screen 2003-12-25 05:53:30 +00:00
Chris Danford 8c5c40b814 fix wrong empty score ranking names 2003-12-24 23:38:56 +00:00
Chris Danford 5339f4f920 add glow support to Model 2003-12-24 21:07:50 +00:00
Chris Danford e36b7e0120 generalize branching screens with ScreenBranch
Add ScreenRemoveMemoryCard
2003-12-24 20:29:26 +00:00
Chris Danford 90fcf5b7b3 remove unused ScreenMemoryCard 2003-12-24 12:59:38 +00:00
Chris Danford e84402a872 add separate ranking metric for "empty name" and "no score name" 2003-12-24 12:52:59 +00:00
Chris Danford 2b067fcb1a print high scores table to stats.html 2003-12-24 12:51:55 +00:00
Chris Danford e3cc4e3ff5 cleanup Model, remove MathUtil files, fix col major/row major errors 2003-12-24 12:30:41 +00:00
Chris Danford 6833773781 Fix CString compile error when using CString::Format 2003-12-24 12:29:31 +00:00
Chris Danford 7051b5d780 fix VC6 warning 2003-12-23 23:42:25 +00:00
Chris Danford cb4e249f1e draw pressblock underneath receptors 2003-12-22 10:54:29 +00:00
Chris Danford e0fd143971 fix keyblock always showing 2003-12-22 10:52:41 +00:00
Chris Danford 95040650b7 fix loading BitmapText from .actor file 2003-12-22 10:47:09 +00:00
Chris Danford 4ac936cfbf GrayArrow => ReceptorArrow
move ReceptorArrow metrics into NoteSkin
ReceptorArrow metrics, code cleanup
2003-12-22 10:30:10 +00:00
Chris Danford 8a77374e04 fix VC6 compile error 2003-12-21 18:35:00 +00:00
Chris Danford 8958f350ea ScreenEvaluation cleanup 2003-12-21 08:55:59 +00:00
Chris Danford ba3ea672c3 remove more unused eval metrics
remove separate "course record" and "category record" graphics
keep track of personal category records
cleanup eval time area
2003-12-21 04:19:51 +00:00
Chris Danford 68e1053947 remove unused eval metrics 2003-12-21 03:49:34 +00:00
Chris Danford 2e692e6fc5 move metrics into ScreenEval subclasses 2003-12-21 03:39:05 +00:00
Chris Danford f9f603ca5b fix VC6 compile error 2003-12-21 03:27:35 +00:00
Chris Danford bf5e5640b0 add comment to lights 2003-12-20 21:59:43 +00:00
Chris Danford 8a24c97e80 clean up ScreenBookkeeping 2003-12-20 21:41:40 +00:00
Chris Danford 928fcd467a make nav-able with just 3 menu buttons 2003-12-20 21:36:09 +00:00
Chris Danford 4ca799bc96 rename "AntiAliasing" to "SmoothLines" 2003-12-20 21:29:55 +00:00
Chris Danford e33b76ddd1 make "Voodoo5" default to D3D 2003-12-20 21:23:29 +00:00
Chris Danford e17e6cb413 update faq 2003-12-20 04:15:56 +00:00
Chris Danford f253972820 fix Linux compile error 2003-12-20 04:14:12 +00:00
Chris Danford b54fab54d0 update faq 2003-12-20 03:41:03 +00:00
Chris Danford 865eaa1009 update faq 2003-12-20 03:40:33 +00:00
Chris Danford 12de1abb07 update faq 2003-12-20 03:21:35 +00:00
Chris Danford 799072e8b0 fix Linux compile error 2003-12-20 02:38:15 +00:00
Chris Danford 64f24895d7 save profile data to memory card subdir so we don't clutter the root 2003-12-19 08:51:47 +00:00
Chris Danford 67a6fddcf3 load profile from memory card, fix memory card file flushing 2003-12-19 08:17:44 +00:00
Chris Danford a58640a3f9 fix memory card temp file write in Linux 2003-12-19 07:21:27 +00:00
Chris Danford 46eceee4ad fix memory card temp being created as read-only 2003-12-19 06:33:46 +00:00
Chris Danford 93b8a46399 better memory card assignment logic, add memory card icons, more memory card sounds 2003-12-19 05:01:42 +00:00
Chris Danford d0a6176e13 better memory card assignment logic, add memory card icons, more memory card sounds 2003-12-19 04:52:07 +00:00
Chris Danford 5c3bbf15cd fix compile error 2003-12-19 01:37:23 +00:00
Chris Danford 1ba5e253ca windows memory card fixes/cleanup 2003-12-18 07:46:21 +00:00
Chris Danford 1c44cd23c8 add memory card insert/remove sound 2003-12-18 04:24:25 +00:00
Chris Danford 799a3062ca working on memory card detection for Windows 2003-12-18 03:59:44 +00:00
Chris Danford ca7d4b7456 fix temp file written to wrong location 2003-12-18 03:57:21 +00:00
Chris Danford 55ba035b72 fix compile error 2003-12-17 19:52:56 +00:00
Chris Danford 395960211c fix compile errors 2003-12-17 19:51:11 +00:00
Chris Danford 96c18b7b6e fix makefile error 2003-12-17 10:30:33 +00:00
Chris Danford 69ad720864 fix makefile error 2003-12-17 10:25:47 +00:00
Chris Danford e11afda65a memory card refactoring 2003-12-17 10:20:53 +00:00